Regional Weather Roundup
Issued by NWS

Home | Current Version | Previous Version | Graphics & Text | Print | Product List | Glossary Off
Versions: 1 2 3 4 5 6 7 8 9 10 11 12 13 14 15 16 17 18 19 20 21 22 23 24 25 26 27 28 29 30 31 32 33 34 35 36 37 38 39 40 41 42 43 44 45 46 47 48 49 50

000
ASUS43 KLSX 040459
RWRMO

WEATHER SUMMARY FOR MISSOURI
NATIONAL WEATHER SERVICE SPRINGFIELD MO
1100 PM CST TUE MAR 03 2015

NOTE: "FAIR" INDICATES FEW OR NO CLOUDS BELOW 12,000 FEET WITH NO
       SIGNIFICANT WEATHER AND/OR OBSTRUCTIONS TO VISIBILITY.
       CURRENT SKY AND/OR WEATHER CONDITIONS ARE NOT AVAILABLE FOR
       CHILLICOTHE AND FARMINGTON.

MOZ001>031-035>038-043-044-053-054-040600-
...NORTHERN AND WESTERN MISSOURI...

CITY           SKY/WX    TMP DP  RH WIND       PRES   REMARKS
KANSAS CTY INT CLOUDY    29  20  69 N16G23    30.01R WCI  17
KANSAS C DTWN  CLOUDY    32  22  66 N20       30.00R WCI  20
LEE`S SUMMIT   CLOUDY    31  24  75 N17       29.98R WCI  19
ST JOSEPH      MOCLDY    26  13  57 N23       30.06R WCI  11
CHILLICOTHE      N/A     31  23  72 N9        30.03R WCI  23

$$
MOZ066>068-077>081-088>096-101>105-040600-
...SOUTHWEST MISSOURI...

CITY           SKY/WX    TMP DP  RH WIND       PRES   REMARKS
SPRINGFIELD    LGT RAIN  41  39  93 N7        29.90R FOG
JOPLIN         LGT RAIN  39  36  89 N13       29.95R FOG

$$
MOZ032>034-039>042-045>050-055>058-069>072-040600-
...CENTRAL MISSOURI...

CITY           SKY/WX    TMP DP  RH WIND       PRES   REMARKS
COLUMBIA       CLOUDY    35  32  88 N5        29.94R
JEFFERSON CITY MIX PCPN  37  30  75 N7        29.97R
ROLLA          LGT RAIN  36  35  96 N8        29.91R FOG     WCI  30
SEDALIA        CLOUDY    35  28  75 N12       29.99R WCI  27
OSAGE BEACH    CLOUDY    36  32  87 E6        29.92F

$$
MOZ051-052-059>065-040600-
...EAST CENTRAL MISSOURI...

CITY           SKY/WX    TMP DP  RH WIND       PRES   REMARKS
ST LOUIS INTL  LGT RAIN  38  34  85 N7        29.95R FOG
SPIRIT OF STL  LGT RAIN  38  35  89 N7        29.95R
ST CHARLES     MIX PCPN  36  32  85 N7        29.96R

$$
MOZ072>076-082>087-097>100-106>115-040600-
...SOUTH CENTRAL AND SOUTHEAST MISSOURI...

CITY           SKY/WX    TMP DP  RH WIND       PRES   REMARKS
CAPE GIRARDEAU FOG       38  38 100 N7        29.91R VSB 1/2
FARMINGTON     CLOUDY    39  39 100 CALM      29.94S VSB 1/4
POPLAR BLUFF   LGT RAIN  41  40  96 CALM      29.88S VSB 1/2
WEST PLAINS    LGT RAIN  42  40  92 NE5       29.88F FOG

$$


USA.gov is the U.S. government's official web portal to all federal, state and local government web resources and services.